User: anonymous   Login
Location: Unspecified
(0.0000°N, 0.0000°E)
Time: 20:28:22
(UTC+01:00)
Language:

Meteor 1-31 Rocket - Orbit

View from above orbital plane
View from above orbital plane
View from above satellite
View from above satellite

Ground track
Ground track

The orbit data is extracted from the following two-line orbital elements,

1 12586U 81065B   14331.46787081  .00004505  00000-0  30353-3 0  5284
2 12586 097.4136 324.1017 0021100 158.4338 201.7783 15.06984890815842
Epoch (UTC): 27 November 2014 11:13:44
Eccentricity: 0.0021100
inclination: 97.4136°
perigee height: 531 km
apogee height: 560 km
right ascension of ascending node: 324.1017°
argument of perigee: 158.4338°
revolutions per day: 15.06984890
mean anomaly at epoch: 201.7783°
orbit number at epoch: 81584

The dashed part of the orbit path shows where the satellite is in the earth's shadow,  

DLR